This demonstration page uses our WeatherBlox Daily Observations layout. Learn more.

Hourly Observations for November 5, 2019

Temp ( °F °C ) Dew Point ( °F °C ) Humidity (%) Winds ( mph kmh ) Pressure ( in mb ) Visibility ( mi km ) Precip ( " mm )
12:15 am 00:15 Clear 37 3 36 2 93 93 SSE 3 6 30.27 1025 10 16.09344 0 0
12:35 am 00:35 Clear 37 3 34 1 87 87 S 3 6 30.27 1025 10 16.09344 0 0
12:55 am 00:55 Clear 36 2 34 1 93 93 Calm 30.27 1025 10 16.09344 0 0
1:15 am 01:15 Clear 37 3 36 2 93 93 Calm 30.27 1025 10 16.09344 0 0
1:35 am 01:35 Clear 36 2 34 1 93 93 NNW 3 6 30.27 1025 10 16.09344 0 0
2:15 am 02:15 Clear 36 2 36 2 100 100 Calm 30.24 1024 10 16.09344 0 0
2:35 am 02:35 Clear 36 2 34 1 93 93 Calm 30.24 1024 10 16.09344 0 0
2:55 am 02:55 Clear 32 0 32 0 100 100 Calm 30.24 1024 10 16.09344 0 0
3:15 am 03:15 Clear 34 1 34 1 100 100 Calm 30.24 1024 10 16.09344 0 0
3:35 am 03:35 Clear 32 0 32 0 100 100 Calm 30.24 1024 10 16.09344 0 0
3:55 am 03:55 Clear 34 1 34 1 100 100 Calm 30.24 1024 10 16.09344 0 0
4:15 am 04:15 Clear 34 1 34 1 100 100 Calm 30.24 1024 10 16.09344 0 0
4:35 am 04:35 Clear 32 0 32 0 100 100 Calm 30.24 1024 10 16.09344 0 0
4:55 am 04:55 Clear 32 0 32 0 100 100 Calm 30.24 1024 10 16.09344 0 0
5:15 am 05:15 Clear 32 0 32 0 100 100 Calm 30.24 1024 10 16.09344 0 0
5:35 am 05:35 Clear 32 0 32 0 100 100 Calm 30.24 1024 10 16.09344 0 0
5:55 am 05:55 Clear 32 0 32 0 100 100 Calm 30.24 1024 10 16.09344 0 0
6:15 am 06:15 Clear 32 0 32 0 100 100 Calm 30.24 1024 10 16.09344 0 0
6:35 am 06:35 Clear 32 0 32 0 100 100 Calm 30.24 1024 10 16.09344 0 0
6:55 am 06:55 Sunny 32 0 32 0 100 100 Calm 30.24 1024 10 16.09344 0 0
7:15 am 07:15 Sunny 32 0 32 0 100 100 Calm 30.24 1024 10 16.09344 0 0
7:35 am 07:35 Sunny 34 1 34 1 100 100 Calm 30.24 1024 10 16.09344 0 0
7:55 am 07:55 Sunny 36 2 36 2 100 100 Calm 30.24 1024 10 16.09344 0 0
8:15 am 08:15 Sunny 41 5 37 3 87 87 Calm 30.24 1024 10 16.09344 0 0
8:35 am 08:35 Sunny 41 5 37 3 87 87 Calm 30.24 1024 10 16.09344 0 0
8:55 am 08:55 Sunny 45 7 37 3 76 76 Calm 30.24 1024 10 16.09344 0 0
9:15 am 09:15 Sunny 46 8 37 3 71 71 Calm 30.24 1024 10 16.09344 0 0
9:35 am 09:35 Sunny 46 8 37 3 71 71 Calm 30.24 1024 10 16.09344 0 0
9:55 am 09:55 Sunny 50 10 39 4 67 67 Calm 30.24 1024 10 16.09344 0 0
10:15 am 10:15 Sunny 52 11 41 5 67 67 Calm 30.24 1024 10 16.09344 0 0
10:35 am 10:35 Sunny 54 12 41 5 63 63 Calm 30.21 1023 10 16.09344 0 0
11:15 am 11:15 Sunny 59 15 41 5 51 51 Calm 30.21 1023 10 16.09344 0 0
11:35 am 11:35 Sunny 61 16 37 3 42 42 Calm 30.18 1022 10 16.09344 0 0
11:55 am 11:55 Sunny 61 16 36 2 39 39 WNW 9 15 30.18 1022 10 16.09344 0 0
12:15 pm 12:15 Sunny 61 16 37 3 42 42 NW 6 9 30.18 1022 10 16.09344 0 0
12:35 pm 12:35 Sunny 61 16 37 3 42 42 NNW 5 7 30.18 1022 10 16.09344 0 0
12:55 pm 12:55 Sunny 63 17 37 3 39 39 NNW 7 11 30.18 1022 10 16.09344 0 0
1:15 pm 13:15 Sunny 63 17 37 3 39 39 W 5 7 30.18 1022 10 16.09344 0 0
1:35 pm 13:35 Sunny 63 17 37 3 39 39 NNW 10 17 30.15 1021 10 16.09344 0 0
1:55 pm 13:55 Sunny 61 16 36 2 39 39 NNW 7 11 30.15 1021 10 16.09344 0 0
2:15 pm 14:15 Mostly Cloudy 63 17 37 3 39 39 NNW 7 11 30.18 1022 10 16.09344 0 0
2:35 pm 14:35 Cloudy 63 17 37 3 39 39 NNW 7 11 30.15 1021 10 16.09344 0 0
2:55 pm 14:55 Partly Cloudy 63 17 36 2 37 37 Calm 30.15 1021 10 16.09344 0 0
3:15 pm 15:15 Sunny 63 17 36 2 37 37 SSW 3 6 30.15 1021 10 16.09344 0 0
3:35 pm 15:35 Sunny 63 17 37 3 39 39 Calm 30.15 1021 10 16.09344 0 0
3:55 pm 15:55 Sunny 63 17 37 3 39 39 S 3 6 30.15 1021 10 16.09344 0 0
4:15 pm 16:15 Sunny 63 17 36 2 37 37 Calm 30.15 1021 10 16.09344 0 0
4:35 pm 16:35 Sunny 63 17 37 3 39 39 Calm 30.18 1022 10 16.09344 0 0
4:55 pm 16:55 Sunny 61 16 36 2 39 39 S 3 6 30.18 1022 10 16.09344 0 0
5:15 pm 17:15 Clear 57 14 39 4 51 51 Calm 30.18 1022 10 16.09344 0 0
5:35 pm 17:35 Clear 55 13 37 3 51 51 Calm 30.18 1022 10 16.09344 0 0
5:55 pm 17:55 Partly Cloudy 54 12 41 5 63 63 N 9 15 30.21 1023 10 16.09344 0 0
6:15 pm 18:15 Cloudy 55 13 41 5 59 59 NNE 6 9 30.21 1023 10 16.09344 0 0
6:35 pm 18:35 Cloudy 55 13 39 4 55 55 NNE 5 7 30.21 1023 10 16.09344 0 0
6:55 pm 18:55 Mostly Cloudy 55 13 39 4 55 55 N 7 11 30.21 1023 10 16.09344 0 0
7:15 pm 19:15 Partly Cloudy 54 12 41 5 63 63 N 5 7 30.21 1023 10 16.09344 0 0
7:35 pm 19:35 Partly Cloudy 54 12 39 4 58 58 N 3 6 30.21 1023 10 16.09344 0 0
7:55 pm 19:55 Partly Cloudy 54 12 41 5 63 63 N 6 9 30.24 1024 10 16.09344 0 0
8:15 pm 20:15 Mostly Cloudy 54 12 41 5 63 63 N 7 11 30.24 1024 10 16.09344 0 0
8:35 pm 20:35 Cloudy 54 12 41 5 63 63 N 7 11 30.24 1024 10 16.09344 0 0
8:55 pm 20:55 Cloudy 54 12 43 6 67 67 N 5 7 30.24 1024 10 16.09344 0 0
9:15 pm 21:15 Cloudy 54 12 41 5 63 63 N 6 9 30.24 1024 10 16.09344 0 0
9:35 pm 21:35 Cloudy 54 12 41 5 63 63 NNE 7 11 30.3 1026 10 16.09344 0 0
9:55 pm 21:55 Mostly Cloudy 52 11 41 5 67 67 Calm 30.3 1026 10 16.09344 0 0
10:15 pm 22:15 Mostly Cloudy 52 11 41 5 67 67 NNW 13 20 30.3 1026 10 16.09344 0 0
10:35 pm 22:35 Cloudy 52 11 41 5 67 67 N 6 9 30.3 1026 10 16.09344 0 0
10:55 pm 22:55 Partly Cloudy 50 10 41 5 71 71 N 3 6 30.3 1026 10 16.09344 0 0
11:15 pm 23:15 Clear 50 10 41 5 71 71 Calm 30.3 1026 10 16.09344 0 0
11:35 pm 23:35 Clear 50 10 41 5 71 71 N 8 13 30.3 1026 10 16.09344 0 0
11:55 pm 23:55 Clear 50 10 41 5 71 71 N 5 7 30.33 1027 10 16.09344 0 0

Powered by AerisWeather